Flag for U.S.A. Weather past 2 weeks in Lafayette, Indiana, U.S.A.

Now
55 °F

Fog.


Feels Like: 55 °F
Forecast: 47 / 63 °F
Wind: 3 mph from North

Location: Purdue University Airport

Current Time: Sep 15, 2014 at 11:21:52 PM

Latest Report: Sep 15, 2014 at 11:00 PM


Visibility: 4 mi

Pressure: 30.13 "Hg

Humidity: 100%

Dew point: 55 °F

Location of LafayetteLocation

Historic Weather in Lafayette — Graph

°F

Lafayette temperature yesterday

Maximum temperature yesterday: 65 °F (at 3:54 PM)
Minimum temperature yesterday: 41 °F (at 6:01 AM)
Average temperature yesterday: 53 °F

Past Weeks' High & Low Weather Summary

 TemperatureHumidityPressure
High91 °F (Sep 5, 3:54 PM)100% (Sep 2, 5:54 AM)30.35 "Hg (Sep 2, 5:54 AM)
Low41 °F (Sep 14, 6:01 AM)42% (Sep 8, 3:54 PM)29.63 "Hg (Sep 10, 4:54 PM)
Average64 °F83%30.06 "Hg
* Reported Aug 31 9:54 PM — Sep 15 9:54 PM, Lafayette, Weather by CustomWeather, © 2014

Note: Actual official high and low records may vary slightly from our data, if they occured in-between our weather recording intervals... More about our weather records

Advertising

Lafayette weather history for previous 24 hours

 ConditionsComfort  
Time TempWeatherWind HumidityBarometerVisibility
9:54 PM
Sep 15
56 °FMostly cloudy.No wind97%30.12 "Hg7 mi
8:54 PM55 °FFog.No wind100%30.11 "Hg2 mi
7:54 PM56 °FFog.No wind97%30.10 "Hg3 mi
6:54 PM57 °FMostly cloudy.3 mph90%30.09 "Hg10 mi
5:54 PM57 °FMore clouds than sun.No wind90%30.08 "Hg10 mi
5:02 PM57 °FCloudy.No wind90%30.07 "Hg10 mi
4:54 PM57 °FMostly cloudy.No wind90%30.07 "Hg10 mi
3:54 PM57 °FPassing clouds.3 mph90%30.07 "Hg10 mi
2:54 PM55 °FLight rain. More clouds than sun.No wind93%30.09 "Hg9 mi
1:54 PM56 °FFog.10 mph93%30.09 "Hg3 mi
12:54 PM55 °FRain. Fog.No wind100%30.19 "Hg3 mi
11:58 AM56 °FThunderstorms. Mostly cloudy.7 mph93%30.16 "Hg9 mi
10:54 AM55 °FLight rain. More clouds than sun.5 mph90%30.15 "Hg10 mi
9:54 AM53 °FOvercast.5 mph86%30.21 "Hg10 mi
8:54 AM51 °FOvercast.No wind96%30.19 "Hg10 mi
7:54 AM46 °FClear.No wind100%30.19 "Hg7 mi
6:54 AM48 °FClear.No wind96%30.18 "Hg10 mi
5:54 AM49 °FClear.No wind97%30.19 "Hg10 mi
4:54 AM47 °FClear.No wind97%30.19 "Hg7 mi
3:54 AM47 °FClear.No wind97%30.20 "Hg10 mi
2:54 AM47 °FClear.No wind97%30.20 "Hg10 mi
1:54 AM47 °FClear.No wind97%30.20 "Hg10 mi
12:54 AM47 °FClear.No wind100%30.19 "Hg10 mi
11:54 PM
Sep 14
49 °FClear.No wind97%30.21 "Hg9 mi
Weather by CustomWeather, © 2014

See weather overviewHow to use our weather pages